Miscellaneous Local Product
Issued by NWS Hastings, NE

Home | Current Version | Previous Version | Graphics & Text | Print | Product List | Glossary On
Versions: 1 2 3 4 5 6 7 8 9 10 11 12 13 14 15 16 17 18 19 20 21 22 23 24 25 26 27 28 29 30 31 32 33 34 35 36 37 38 39 40 41 42 43 44 45 46 47 48 49 50
000
AXUS43 KGID 211502
MISGRI

GID CWA HOURLY WEATHER ROUNDUP
NATIONAL WEATHER SERVICE HASTINGS NE
1000 AM CDT THU AUG 21 2014

NOTE: "FAIR" INDICATES FEW OR NO CLOUDS BELOW 12,000 FEET WITH NO
SIGNIFICANT WEATHER AND/OR OBSTRUCTIONS TO VISIBILITY.

...SOUTH CENTRAL NEBRASKA...

CITY           SKY/WX    TMP DP  RH WIND       PRES   REMARKS
GRAND ISLAND   PTSUNNY   76  68  76 S13       29.84R
HASTINGS       PTSUNNY   73  65  75 S13       29.84F
KEARNEY        MOSUNNY   77  70  78 S9        29.85S
ORD            MOSUNNY   75  67  76 S5        29.82S
YORK           PTSUNNY   73 N/A N/A S10       29.84F
AURORA         PTSUNNY   76  70  82 S10G18    29.83F
LEXINGTON      MOSUNNY   76  68  75 SE5       29.86R
HOLDREGE       MOSUNNY   76  69  78 CALM      29.86R
HEBRON         LGT RAIN  73  68  82 S3        29.88S

...NEBRASKA PANHANDLE...

CITY           SKY/WX    TMP DP  RH WIND       PRES   REMARKS
CHADRON        MOSUNNY   72  59  63 CALM      29.97S
ALLIANCE       SUNNY     74  54  49 N13       29.98S
SCOTTSBLUFF    SUNNY     69  52  54 W9        30.02R
SIDNEY         SUNNY     73  50  44 NW16      30.02S

...WESTERN AND NORTH CENTRAL NEBRASKA...

CITY           SKY/WX    TMP DP  RH WIND       PRES   REMARKS
VALENTINE      MOSUNNY   74  62  66 N14       29.90S
AINSWORTH      PTSUNNY   69  62  80 N9        29.90S
ONEILL         MOSUNNY   74  71  88 NW10      29.84S
BROKEN BOW     PTSUNNY   78  66  66 N9        29.86R
IMPERIAL       SUNNY     77  57  50 NW13      29.94R
NORTH PLATTE   MOSUNNY   79  62  56 W5        29.88S
MCCOOK         MOSUNNY   79  60  52 E5        29.89R

...EASTERN NEBRASKA...

CITY           SKY/WX    TMP DP  RH WIND       PRES   REMARKS
NORFOLK        SUNNY     80  67  64 SW10      29.82R
SO SIOUX CITY  MOSUNNY   81  67  62 S8        29.80R
TEKAMAH        PTSUNNY   79  69  71 S5        29.80F
COLUMBUS       MOSUNNY   81  66  61 SW9G18    29.83R
ALBION         MOSUNNY   77  68  72 S6        29.83S
OMAHA EPPLEY   CLOUDY    79  69  71 E6        29.82R
OFFUTT AFB     PTSUNNY   77  72  85 SW6       29.82R
MILLARD        CLOUDY    79  69  72 CALM      29.82R
LINCOLN        LGT RAIN  75  69  81 S13       29.83R
NEBRASKA CITY  CLOUDY    75  69  80 SW9       29.87R
BEATRICE       RAIN      76  70  81 CALM      29.89R
FALLS CITY     CLOUDY    81  71  71 S6        29.87F

...NORTHERN KANSAS...

CITY           SKY/WX    TMP DP  RH WIND       PRES   REMARKS
GOODLAND       SUNNY     77  59  53 N9        29.98R
HILL CITY      PTSUNNY   79  65  62 NE6       29.85S
NORTON         PTSUNNY   75  63  64 CALM      29.85S
PHILLIPSBURG   HVY RAIN  82  64  54 SE6       29.83F
SMITH CENTER   SUNNY     75  66  73 SE8       29.85S
BELOIT         SUNNY     82  66  57 S3        29.84F
HAYS           SUNNY     84  64  51 SW20G25   29.86R
RUSSELL        SUNNY     87  65  47 SW21G28   29.84S
CONCORDIA      MOSUNNY   80  67  64 S6        29.86F
SALINA         SUNNY     87  66  49 S23G29    29.86R
TOPEKA         SUNNY     85  71  63 S9G18     29.90R HX  90



USA.gov is the U.S. government's official web portal to all federal, state and local government web resources and services.